• In Moldova, Republic
  • List of Countries
  • For 7 days
  • Water Temperature
  • Satellite Maps
  • Weather Map
  • Weather Widgets
  • user-avatar
    Login

    Hourly Weather Prutz

    Today, 21 July, Friday

    Time Temperature Precipitation Wind Pressure Humidity
    00:00 +13°C° 0.4 mm 1 mps 635 mmHg 91%
    01:00 +12°C° 0 mm 1 mps 635 mmHg 87%
    02:00 +12°C° 0.1 mm 1 mps 634 mmHg 87%
    03:00 +12°C° 0.1 mm 1 mps 634 mmHg 87%
    04:00 +11°C° 0.1 mm 1 mps 634 mmHg 87%
    05:00 +13°C° 0.1 mm 1 mps 634 mmHg 84%
    06:00 +14°C° 0.1 mm 1 mps 635 mmHg 81%
    07:00 +15°C° 0.1 mm 1 mps 635 mmHg 78%
    08:00 +18°C° 0.1 mm 1 mps 636 mmHg 70%
    09:00 +20°C° 0.1 mm 1 mps 636 mmHg 61%
    10:00 +21°C° 0.1 mm 2 mps 637 mmHg 53%
    11:00 +21°C° 0.4 mm 2 mps 637 mmHg 52%
    12:00 +23°C° 0.4 mm 2 mps 637 mmHg 51%
    13:00 +23°C° 0.4 mm 2 mps 637 mmHg 50%
    14:00 +23°C° 0.9 mm 2 mps 636 mmHg 52%
    15:00 +23°C° 0.9 mm 2 mps 636 mmHg 54%
    16:00 +21°C° 0.9 mm 2 mps 636 mmHg 56%
    17:00 +20°C° 1.6 mm 2 mps 635 mmHg 65%
    18:00 +19°C° 1.6 mm 2 mps 635 mmHg 74%
    19:00 +18°C° 1.6 mm 1 mps 634 mmHg 83%
    20:00 +16°C° 1 mm 1 mps 634 mmHg 85%
    21:00 +15°C° 1 mm 2 mps 634 mmHg 86%
    22:00 +14°C° 1 mm 2 mps 634 mmHg 88%
    23:00 +14°C° 0.4 mm 2 mps 634 mmHg 89%

    Tomorrow, 22 July, Saturday

    Time Temperature Precipitation Wind Pressure Humidity
    00:00 +14°C° 0.4 mm 2 mps 634 mmHg 90%
    01:00 +13°C° 0.4 mm 2 mps 634 mmHg 91%
    02:00 +13°C° 0.5 mm 2 mps 634 mmHg 91%
    03:00 +13°C° 0.5 mm 2 mps 634 mmHg 91%
    04:00 +13°C° 0.5 mm 1 mps 634 mmHg 92%
    05:00 +14°C° 0.1 mm 1 mps 634 mmHg 88%
    06:00 +15°C° 0.1 mm 1 mps 635 mmHg 85%
    07:00 +15°C° 0.1 mm 1 mps 635 mmHg 81%
    08:00 +18°C° 0 mm 1 mps 636 mmHg 72%
    09:00 +20°C° 0 mm 1 mps 637 mmHg 63%
    10:00 +22°C° 0 mm 1 mps 637 mmHg 54%
    11:00 +22°C° 0.3 mm 1 mps 637 mmHg 54%
    12:00 +23°C° 0.3 mm 1 mps 637 mmHg 54%
    13:00 +23°C° 0.3 mm 1 mps 637 mmHg 54%
    14:00 +22°C° 1 mm 1 mps 637 mmHg 59%
    15:00 +22°C° 1 mm 1 mps 637 mmHg 64%
    16:00 +21°C° 1 mm 1 mps 636 mmHg 70%
    17:00 +20°C° 1.5 mm 1 mps 636 mmHg 76%
    18:00 +19°C° 1.5 mm 1 mps 636 mmHg 82%
    19:00 +18°C° 1.5 mm 1 mps 636 mmHg 88%
    20:00 +16°C° 1.5 mm 1 mps 636 mmHg 90%
    21:00 +15°C° 1.5 mm 1 mps 636 mmHg 92%
    22:00 +14°C° 1.5 mm 1 mps 636 mmHg 95%
    23:00 +14°C° 0.8 mm 1 mps 636 mmHg 94%

    Day after tomorrow, 23 July, Sunday

    Time Temperature Precipitation Wind Pressure Humidity
    00:00 +14°C° 0.8 mm 1 mps 636 mmHg 94%
    01:00 +14°C° 0.8 mm 1 mps 635 mmHg 94%
    02:00 +14°C° 0.3 mm 1 mps 635 mmHg 93%
    03:00 +13°C° 0.3 mm 1 mps 635 mmHg 93%
    04:00 +13°C° 0.3 mm 1 mps 635 mmHg 92%
    05:00 +14°C° 0.1 mm 1 mps 635 mmHg 90%
    06:00 +15°C° 0.1 mm 1 mps 636 mmHg 87%
    07:00 +16°C° 0.1 mm 1 mps 636 mmHg 85%
    08:00 +16°C° 0.2 mm 1 mps 636 mmHg 81%
    09:00 +18°C° 0.2 mm 1 mps 637 mmHg 78%
    10:00 +19°C° 0.2 mm 1 mps 637 mmHg 74%
    11:00 +19°C° 0.4 mm 1 mps 637 mmHg 75%
    12:00 +19°C° 0.4 mm 1 mps 637 mmHg 76%
    13:00 +18°C° 0.4 mm 2 mps 637 mmHg 77%
    14:00 +17°C° 0.5 mm 2 mps 636 mmHg 79%
    15:00 +17°C° 0.5 mm 2 mps 636 mmHg 82%
    16:00 +17°C° 0.5 mm 2 mps 636 mmHg 85%
    17:00 +16°C° 0.8 mm 2 mps 636 mmHg 88%
    18:00 +15°C° 0.8 mm 2 mps 635 mmHg 90%
    19:00 +15°C° 0.8 mm 1 mps 635 mmHg 93%
    20:00 +14°C° 0.9 mm 1 mps 635 mmHg 94%
    21:00 +14°C° 0.9 mm 1 mps 635 mmHg 95%
    22:00 +13°C° 0.9 mm 1 mps 635 mmHg 97%
    23:00 +13°C° 0.4 mm 1 mps 635 mmHg 97%

    24 July, Monday

    Time Temperature Precipitation Wind Pressure Humidity
    00:00 +13°C° 0.4 mm 1 mps 634 mmHg 97%
    01:00 +12°C° 0.4 mm 1 mps 634 mmHg 97%
    02:00 +12°C° 0.5 mm 1 mps 633 mmHg 97%
    03:00 +12°C° 0.5 mm 1 mps 633 mmHg 97%
    04:00 +12°C° 0.5 mm 1 mps 632 mmHg 97%
    05:00 +12°C° 0.6 mm 1 mps 632 mmHg 96%
    06:00 +12°C° 0.6 mm 1 mps 632 mmHg 95%
    07:00 +13°C° 0.6 mm 1 mps 631 mmHg 94%
    08:00 +13°C° 1.6 mm 1 mps 631 mmHg 92%
    09:00 +13°C° 1.6 mm 1 mps 631 mmHg 91%
    10:00 +13°C° 1.6 mm 1 mps 631 mmHg 89%
    11:00 +13°C° 3.5 mm 2 mps 630 mmHg 91%
    12:00 +12°C° 3.5 mm 2 mps 630 mmHg 92%
    13:00 +10°C° 3.5 mm 2 mps 630 mmHg 94%
    14:00 +10°C° 2.7 mm 2 mps 630 mmHg 94%
    15:00 +9°C° 2.7 mm 2 mps 630 mmHg 95%
    16:00 +9°C° 2.7 mm 2 mps 630 mmHg 95%
    17:00 +9°C° 0.5 mm 2 mps 630 mmHg 95%
    18:00 +9°C° 0.5 mm 2 mps 630 mmHg 94%
    19:00 +9°C° 0.5 mm 2 mps 630 mmHg 94%
    20:00 +8°C° 0.1 mm 2 mps 630 mmHg 95%
    21:00 +7°C° 0.1 mm 2 mps 630 mmHg 95%
    22:00 +7°C° 0.1 mm 2 mps 630 mmHg 96%
    23:00 +7°C° 0.4 mm 2 mps 630 mmHg 96%

    25 July, Tuesday

    Time Temperature Precipitation Wind Pressure Humidity
    00:00 +7°C° 0.4 mm 2 mps 630 mmHg 96%
    01:00 +6°C° 0.4 mm 2 mps 630 mmHg 96%
    02:00 +6°C° 0.6 mm 2 mps 630 mmHg 96%
    03:00 +6°C° 0.6 mm 2 mps 630 mmHg 96%
    04:00 +6°C° 0.6 mm 2 mps 629 mmHg 96%
    05:00 +7°C° 1 mm 2 mps 629 mmHg 94%
    06:00 +8°C° 1 mm 1 mps 630 mmHg 93%
    07:00 +8°C° 1 mm 1 mps 630 mmHg 92%
    08:00 +9°C° 1.5 mm 1 mps 630 mmHg 89%
    09:00 +8°C° 1.5 mm 2 mps 630 mmHg 87%
    10:00 +9°C° 1.5 mm 2 mps 630 mmHg 85%
    11:00 +9°C° 1.3 mm 2 mps 630 mmHg 85%
    12:00 +9°C° 1.3 mm 2 mps 630 mmHg 85%
    13:00 +9°C° 1.3 mm 2 mps 630 mmHg 85%
    14:00 +9°C° 0.5 mm 2 mps 630 mmHg 84%
    15:00 +10°C° 0.5 mm 2 mps 630 mmHg 82%
    16:00 +10°C° 0.5 mm 2 mps 630 mmHg 81%
    17:00 +9°C° 0.4 mm 2 mps 630 mmHg 84%
    18:00 +9°C° 0.4 mm 2 mps 630 mmHg 86%
    19:00 +8°C° 0.4 mm 2 mps 630 mmHg 89%
    20:00 +8°C° 0.3 mm 2 mps 630 mmHg 90%
    21:00 +7°C° 0.3 mm 2 mps 630 mmHg 91%
    22:00 +7°C° 0.3 mm 2 mps 630 mmHg 93%
    23:00 +7°C° 0.4 mm 2 mps 630 mmHg 93%

    26 July, Wednesday

    Time Temperature Precipitation Wind Pressure Humidity
    00:00 +7°C° 0.4 mm 2 mps 630 mmHg 93%
    01:00 +7°C° 0.4 mm 2 mps 630 mmHg 93%
    02:00 +7°C° 0.6 mm 2 mps 630 mmHg 93%
    03:00 +7°C° 0.6 mm 2 mps 630 mmHg 93%
    04:00 +7°C° 0.6 mm 2 mps 630 mmHg 93%
    05:00 +7°C° 0.3 mm 2 mps 631 mmHg 92%
    06:00 +8°C° 0.3 mm 2 mps 631 mmHg 91%
    07:00 +8°C° 0.3 mm 2 mps 631 mmHg 90%
    08:00 +10°C° 0 mm 2 mps 632 mmHg 83%
    09:00 +13°C° 0 mm 2 mps 632 mmHg 76%
    10:00 +14°C° 0 mm 2 mps 633 mmHg 69%
    11:00 +15°C° 0 mm 2 mps 633 mmHg 63%
    12:00 +17°C° 0 mm 2 mps 634 mmHg 57%
    13:00 +18°C° 0 mm 2 mps 634 mmHg 51%
    14:00 +18°C° 0 mm 2 mps 634 mmHg 50%
    15:00 +18°C° 0 mm 2 mps 634 mmHg 49%
    16:00 +18°C° 0 mm 2 mps 634 mmHg 48%
    17:00 +17°C° 0 mm 2 mps 634 mmHg 55%
    18:00 +15°C° 0 mm 2 mps 633 mmHg 63%
    19:00 +14°C° 0 mm 1 mps 633 mmHg 70%
    20:00 +12°C° 0 mm 1 mps 633 mmHg 75%
    21:00 +10°C° 0 mm 1 mps 633 mmHg 81%
    22:00 +9°C° 0 mm 1 mps 633 mmHg 86%
    23:00 +9°C° 0 mm 1 mps 633 mmHg 85%
    Show more